CZ-6A DEB

Satellite information

Favourite Embed

Satellite Type and Status

DEBRISIN ORBIT

Key statistics

Satellite CZ-6A DEB at a glance.

Uptime

1076

Days in orbit

Revolutions

≈ 14.1

Per day

Orbit

SSO

Sun Synchronous Orbit

Inclination

98.8

Latest

Satellite identification and parameters

Extended collection of information and parameters for CZ-6A DEB.

Object identification

Identified? True

Debris? True

Object name: CZ-6A DEB

International designator: 2022-151JG

Object number (NORAD): 54504

Object ID (CCSDS): 54504

Country: PEOPLES REPUBLIC OF CHINA (PRC)

Current information (Y/N): Y

RCS size: LARGE

Orbital parameters

Period: 101.84 minutes

Inclination: 98.8394 deg

SMA: 7223.889 km

Apoapsis: 873.955 km

Periapsis: 817.553 km

RAAN: 299.4188 deg

Eccentricy: 0.00390381

Argument of periapsis: 254.5563 deg

Mean anomaly: 105.1296 deg

Mean motion: 14.13989416 rev/day

Mean motion (dot): 0.00001867 rev/day2

B* drag term: 0.00099881075 1/REarth

Two-line elements (TLE)

Creation date: Oct. 21, 2025, 3:26 a.m.

Reference frame: TEME

Reference center: EARTH

Epoch: Oct. 20, 2025, 9:24 p.m. UTC

TLE line 0: 0 CZ-6A DEB

TLE line 1: 1 54504U 22151JG 25293.89211921 .00001867 00000-0 99881-3 0 9993

TLE line 2: 2 54504 98.8394 299.4188 0039038 254.5563 105.1296 14.13989416151338

Live tracking on map

Real-time ground track for satellite CZ-6A DEB.

In-orbit conjunctions

A list of the most updated potential collisions computed for object CZ-6A DEB.

Target Orbit TCA Probability of collision Miss distance Type
METEOR 2-5 DEB LEO 2025-10-05 03:57:22 0.0001160719 110.0 (m) DEBRIS
COSMOS 249 DEB LEO 2025-09-30 06:19:18 0.0001117795 179.0 (m) DEBRIS
DELTA 1 DEB SSO 2024-11-12 21:06:37 0.0002055854 858.0 (m) DEBRIS
CZ-6A DEB LEO 2024-11-02 05:58:26 0.000166914 664.0 (m) DEBRIS
FENGYUN 1C DEB SSO 2024-09-06 16:21:40 0.0002678381 95.0 (m) DEBRIS

Associated space launch

Chinese satellite reported for atmospheric/ocean/environmental/spatial parameter research purposes, details TBD.

CZ-6A DEB was lifted into orbit during the mission ‘Long March 6A | Yunhai 3’, on board a Long March 6A space rocket.

The launch took place on Nov. 11, 2022, 10:52 p.m. from Launch Complex 9A.

For more information about the launch, click the button.

Launch to space Long March 6A | Yunhai 3
Long March 6A | Yunhai 3

Agency: N/A

Status: Launch Successful

Launch date: Nov. 11, 2022, 10:52 p.m. UTC

Rocket: Long March 6A

Launch pad: Launch Complex 9A

Location: Taiyuan Satellite Launch Center, People's Republic of China

...

Latest news about this satellite

There are no fresh news available about this satellite. Check back as we update our databases every day.


Newsletter sign-up

Weekly statistics, charts and insights to help you stay on top of the space industry.